Weather History for Seldovia, AK

Change the Weather History Date:

Thursday, January 23, 2014

  Actual Average (PAHO) Record (PAHO)
Temperature  
Mean Temperature 42 °F -  
Max Temperature 46 °F 28 °F 53 °F (2014)
Min Temperature 37 °F 18 °F -13 °F (1973)
Degree Days  
Heating Degree Days 24    
Moisture  
Dew Point 39 °F    
Average Humidity 93    
Maximum Humidity 100    
Minimum Humidity 76    
Precipitation  
Precipitation 0.04 in - - ()
Sea Level Pressure  
Sea Level Pressure 29.58 in    
Wind  
Wind Speed 3 mph (SSE)    
Max Wind Speed 17 mph    
Max Gust Speed 26 mph    
Visibility 10 miles    
Events Rain    
Averages and records for this station are not official NWS values.
T = Trace of Precipitation, MM = Missing Value Source: NWS Daily Summary

Daily Weather History Graph

Daily Weather History Graph

Search for Another Location

Airport:

Trip Planner

Search our weather history database for the weather conditions in past years. The results will help you decide how hot, cold, wet, or windy it might be!

Date:

Astronomy

Jan. 23, 2014 Rise Set
Actual Time 9:35 AM AKST 5:02 PM AKST
Civil Twilight 8:47 AM AKST 5:51 PM AKST
Nautical Twilight 7:55 AM AKST 6:42 PM AKST
Astronomical Twilight 7:07 AM AKST 7:30 PM AKST
Moon 1:34 AM AKST (1/23) 11:20 AM AKST (1/23)
Length of Visible Light 9h 03m
Length of Day
7h 26m
Waning Gibbous, 54% of the Moon is Illuminated
Jan 23
Waning Gibbous
Jan 23
Last Quarter
Jan 30
New
Feb 6
First Quarter
Feb 14
Full

Hourly Weather History & Observations

Time (AKST) Temp. Windchill Dew Point Humidity Pressure Visibility Wind Dir Wind Speed Gust Speed Precip Events Conditions
12:53 AM 39.0 °F 36.8 °F 37.9 °F 96% 29.42 in 10.0 mi Variable 3.5 mph - 0.00 in   Overcast
1:53 AM 37.9 °F - 37.0 °F 97% 29.41 in 8.0 mi Calm Calm - N/A   Overcast
3:53 AM 37.0 °F - 37.0 °F 100% 29.46 in 10.0 mi Calm Calm - 0.01 in Rain Light Rain
4:53 AM 37.0 °F - 37.0 °F 100% 29.48 in 8.0 mi Calm Calm - 0.00 in   Overcast
6:53 AM 39.0 °F - 37.9 °F 96% 29.54 in 10.0 mi Calm Calm - N/A   Mostly Cloudy
7:44 AM 39.2 °F - 39.2 °F 100% 29.54 in 10.0 mi Calm Calm - N/A   Mostly Cloudy
7:53 AM 39.0 °F - 37.9 °F 96% 29.55 in 10.0 mi Calm Calm - N/A   Overcast
8:53 AM 37.9 °F 35.5 °F 37.9 °F 100% 29.58 in 10.0 mi NNE 3.5 mph - 0.00 in   Overcast
9:53 AM 39.0 °F - 37.9 °F 96% 29.61 in 10.0 mi Calm Calm - N/A   Scattered Clouds
10:06 AM 44.6 °F 38.4 °F 42.8 °F 93% 29.60 in 10.0 mi South 12.7 mph 20.7 mph N/A   Mostly Cloudy
10:13 AM 44.6 °F 37.8 °F 42.8 °F 93% 29.60 in 10.0 mi South 15.0 mph 24.2 mph N/A   Partly Cloudy
10:53 AM 45.0 °F 37.6 °F 41.0 °F 86% 29.63 in 10.0 mi South 17.3 mph 26.5 mph N/A   Clear
11:53 AM 44.1 °F 39.0 °F 41.0 °F 89% 29.67 in 10.0 mi SSE 9.2 mph 18.4 mph N/A   Clear
12:53 PM 44.1 °F 41.5 °F 39.9 °F 85% 29.68 in 10.0 mi Variable 4.6 mph - N/A   Clear
1:53 PM 43.0 °F - 41.0 °F 93% 29.69 in 10.0 mi Calm Calm - N/A   Clear
2:53 PM 41.0 °F 39.0 °F 39.0 °F 93% 29.68 in 10.0 mi Variable 3.5 mph - N/A   Clear
3:53 PM 41.0 °F - 39.0 °F 93% 29.67 in 10.0 mi Calm Calm - N/A   Clear
4:53 PM 45.0 °F 41.8 °F 39.0 °F 80% 29.67 in 10.0 mi SSE 5.8 mph - N/A   Partly Cloudy
5:53 PM 46.0 °F 42.5 °F 39.0 °F 76% 29.65 in 10.0 mi SSE 6.9 mph - N/A   Partly Cloudy
6:53 PM 46.0 °F 41.4 °F 39.9 °F 79% 29.62 in 10.0 mi SSE 9.2 mph - 0.00 in Rain Light Rain
7:53 PM 42.1 °F - 39.9 °F 92% 29.59 in 10.0 mi Calm Calm - 0.01 in   Overcast
8:53 PM 41.0 °F - 39.0 °F 93% 29.54 in 10.0 mi Calm Calm - 0.00 in Rain Light Rain
9:53 PM 39.0 °F - 39.0 °F 100% 29.51 in 10.0 mi Calm Calm - 0.00 in   Overcast
10:53 PM 37.9 °F - 37.9 °F 100% 29.47 in 10.0 mi Calm Calm - 0.02 in Rain Light Rain